Location: Clermont
(50.2608°N, 4.3172°E)
Time: 05:45:39
(UTC+00:00)

CENTAUR R/B - Pass Details

Date: 13 August 2020
Orbit: 756 x 1432 km, 63.4° (Epoch: 19 September)

Event Time Altitude Azimuth Distance (km) Brightness Sun altitude
Rises 22:28:40 0° 247° (WSW) 3,525 5.4 -23.2°
Reaches altitude 10° 22:31:06 10° 253° (WSW) 2,670 4.8 -23.3°
Maximum altitude 22:37:12 49° 328° (NNW) 1,348 3.6 -23.6°
Drops below altitude 10° 22:44:27 10° 42° (NE) 3,159 5.5 -24.0°
Sets 22:47:35 0° 48° (NE) 4,226 6.2 -24.1°
